Location: Praha
(50.0830°N, 14.4670°E)
Time: 21:14:03
(UTC+01:00)

ISS - Pass Details

Date: 14 December 2019
Orbit: 411 x 421 km, 51.6° (Epoch: 08 December)

Event Time Altitude Azimuth Distance (km) Brightness Sun altitude
Rises 16:47:44 0° 278° (W) 2,355 1.0 -7.3°
Reaches altitude 10° 16:51:39 10° 232° (SW) 1,489 0.6 -7.9°
Maximum altitude 16:52:02 10° 225° (SW) 1,479 0.4 -7.9°
Drops below altitude 10° 16:52:26 10° 219° (SW) 1,488 0.2 -8.0°
Sets 16:56:20 0° 172° (S) 2,347 0.3 -8.6°
